Location: Corralito
(10.2667°N, 66.9500°W)
Time: 13:24:30
(UTC+00:00)

Spot 4 Rocket - Pass Details

Date: 01 May 2024
Orbit: 772 x 777 km, 98.8° (Epoch: 20 May)

Event Time Altitude Azimuth Distance (km) Brightness Sun altitude
Rises 09:32:03 0° 24° (NNE) 3,241 7.9 -9.8°
Reaches altitude 10° 09:34:29 10° 31° (NNE) 2,314 7.3 -9.2°
Maximum altitude 09:39:17 42° 102° (ESE) 1,090 5.4 -8.1°
Drops below altitude 10° 09:44:05 10° 172° (S) 2,312 6.4 -7.0°
Sets 09:46:29 0° 179° (S) 3,238 7.1 -6.4°
